Location: Asis
(14.1331°N, 120.9056°E)
Time: 03:24:43
(UTC+00:00)

OAO 3 Rocket - Pass Details

Date: 15 January 2026
Orbit: 613 x 661 km, 35.0° (Epoch: 17 February)

Event Time Altitude Azimuth Distance (km) Brightness Sun altitude
Rises 11:18:16 0° 311° (NW) 2,972 7.0 -21.7°
Reaches altitude 10° 11:20:44 10° 317° (NW) 2,057 6.0 -22.2°
Enters shadow 11:24:37 43° 3° (N) 908 3.7 -23.1°
